Location: Maiden
(35.5760°N, 81.2120°W)
Time: 02:29:17
(UTC-04:00)

Meteor 2-20 - Pass Details

Date: 02 August 2020
Orbit: 940 x 958 km, 82.5° (Epoch: 11 August)

Event Time Altitude Azimuth Distance (km) Brightness Sun altitude
Rises 23:06:47 0° 353° (N) 3,644 8.4 -27.0°
Reaches altitude 10° 23:09:18 10° 355° (N) 2,693 7.5 -27.3°
Maximum altitude 23:15:28 84° 82° (E) 964 4.3 -28.1°
Enters shadow 23:15:48 80° 139° (SE) 973 4.3 -28.1°
